| time (UTC) | temp F | wind direction | speed knots | gust knots | rain 1hr in | rain 24hr in | rain mn in | humidity % | barometer mb |
| 20260906205637 | 87 | 236 | 0.0 | 3.5 | 0.00 | 0.00 | 0.00 | 34 | 1012.2 |
| 20260906204637 | 87 | 150 | 2.6 | 3.5 | 0.00 | 0.00 | 0.00 | 36 | 1012.2 |
| 20260906204137 | 87 | 215 | 1.7 | 3.5 | 0.00 | 0.00 | 0.00 | 35 | 1012.2 |
| 20260906203637 | 86 | 333 | 0.9 | 4.3 | 0.00 | 0.00 | 0.00 | 37 | 1012.0 |
| 20260906203136 | 86 | 279 | 0.9 | 6.1 | 0.00 | 0.00 | 0.00 | 38 | 1012.2 |
| 20260906202637 | 86 | 342 | 1.7 | 6.1 | 0.00 | 0.00 | 0.00 | 39 | 1012.3 |
| 20260906201637 | 85 | 186 | 0.9 | 3.5 | 0.00 | 0.00 | 0.00 | 41 | 1012.3 |
| 20260906201136 | 85 | 269 | 0.9 | 5.2 | 0.00 | 0.00 | 0.00 | 43 | 1012.3 |
| 20260906200636 | 84 | 336 | 0.9 | 5.2 | 0.00 | 0.00 | 0.00 | 43 | 1012.5 |
| 20260906195636 | 83 | 222 | 0.9 | 2.6 | 0.00 | 0.00 | 0.00 | 45 | 1012.6 |
| 20260906195136 | 82 | 326 | 1.7 | 2.6 | 0.00 | 0.00 | 0.00 | 45 | 1013.0 |
| 20260906194636 | 82 | 268 | 1.7 | 4.3 | 0.00 | 0.00 | 0.00 | 45 | 1012.7 |
| 20260906194136 | 83 | 278 | 0.0 | 4.3 | 0.00 | 0.00 | 0.00 | 43 | 1012.9 |
| 20260906193636 | 84 | 263 | 0.9 | 2.6 | 0.00 | 0.00 | 0.00 | 44 | 1012.9 |
| 20260906192636 | 83 | 266 | 0.0 | 3.5 | 0.00 | 0.00 | 0.00 | 43 | 1013.0 |
| 20260906191136 | 82 | 238 | 0.0 | 3.5 | 0.00 | 0.00 | 0.00 | 45 | 1013.2 |
| 20260906190636 | 82 | 355 | 0.9 | 2.6 | 0.00 | 0.00 | 0.00 | 45 | 1013.2 |
| 20260906190136 | 81 | 276 | 0.0 | 1.7 | 0.00 | 0.00 | 0.00 | 46 | 1013.4 |
| 20260906185636 | 81 | 267 | 0.0 | 2.6 | 0.00 | 0.00 | 0.00 | 48 | 1013.4 |
| 20260906184636 | 79 | 35 | 0.9 | 2.6 | 0.00 | 0.00 | 0.00 | 50 | 1013.5 |
| 20260906184136 | 79 | 225 | 0.0 | 1.7 | 0.00 | 0.00 | 0.00 | 54 | 1013.5 |
| 20260906183135 | 78 | 242 | 0.0 | 3.5 | 0.00 | 0.00 | 0.00 | 56 | 1013.5 |
| 20260906182635 | 77 | 360 | 1.7 | 3.5 | 0.00 | 0.00 | 0.00 | 56 | 1013.4 |
| 20260906182135 | 76 | 326 | 1.7 | 3.5 | 0.00 | 0.00 | 0.00 | 59 | 1013.5 |
| 20260906181635 | 75 | 334 | 0.9 | 3.5 | 0.00 | 0.00 | 0.00 | 62 | 1013.6 |
| 20260906181135 | 74 | 321 | 2.6 | 2.6 | 0.00 | 0.00 | 0.00 | 59 | 1013.6 |
| 20260906175635 | 71 | 18 | 0.0 | 1.7 | 0.00 | 0.00 | 0.00 | 63 | 1013.8 |
| 20260906175135 | 70 | 355 | 0.0 | 2.6 | 0.00 | 0.00 | 0.00 | 65 | 1013.7 |
| 20260906174635 | 69 | 9 | 1.7 | 2.6 | 0.00 | 0.00 | 0.00 | 67 | 1013.7 |
| 20260906174135 | 69 | 338 | 0.9 | 2.6 | 0.00 | 0.00 | 0.00 | 69 | 1013.7 |
| 20260906173635 | 68 | 265 | 0.0 | 0.9 | 0.00 | 0.00 | 0.00 | 69 | 1013.9 |
| 20260906172635 | 67 | 350 | 0.9 | 3.5 | 0.00 | 0.00 | 0.00 | 72 | 1014.2 |
| 20260906171635 | 67 | 15 | 0.0 | 1.7 | 0.00 | 0.00 | 0.00 | 71 | 1014.1 |
| 20260906171134 | 66 | 157 | 0.9 | 1.7 | 0.00 | 0.00 | 0.00 | 73 | 1014.0 |
| 20260906170635 | 66 | 141 | 0.0 | 2.6 | 0.00 | 0.00 | 0.00 | 73 | 1013.6 |
| 20260906165634 | 64 | 67 | 0.0 | 1.7 | 0.00 | 0.00 | 0.00 | 76 | 1013.3 |
| 20260906165135 | 64 | 82 | 0.0 | 3.5 | 0.00 | 0.00 | 0.00 | 76 | 1013.4 |
| 20260906164134 | 64 | 114 | 0.9 | 4.3 | 0.00 | 0.00 | 0.00 | 76 | 1013.1 |
| 20260906163634 | 63 | 132 | 2.6 | 3.5 | 0.00 | 0.00 | 0.00 | 76 | 1012.9 |
| 20260906163135 | 63 | 119 | 0.9 | 2.6 | 0.00 | 0.00 | 0.00 | 76 | 1013.0 |
| 20260906162634 | 63 | 126 | 0.9 | 2.6 | 0.00 | 0.00 | 0.00 | 76 | 1013.0 |
| 20260906161634 | 63 | 124 | 0.9 | 1.7 | 0.00 | 0.00 | 0.00 | 76 | 1013.0 |
| 20260906160134 | 62 | 165 | 0.0 | 1.7 | 0.00 | 0.00 | 0.00 | 78 | 1013.0 |
| 20260906155634 | 62 | 154 | 0.0 | 1.7 | 0.00 | 0.00 | 0.00 | 79 | 1013.2 |
| 20260906155134 | 62 | 105 | 0.0 | 0.9 | 0.00 | 0.00 | 0.00 | 80 | 1013.2 |
| 20260906154634 | 61 | 52 | 0.0 | 0.0 | 0.00 | 0.00 | 0.00 | 80 | 1013.1 |
| 20260906154133 | 61 | 52 | 0.0 | 1.7 | 0.00 | 0.00 | 0.00 | 81 | 1013.1 |
| 20260906153633 | 60 | 52 | 0.0 | 1.7 | 0.00 | 0.00 | 0.00 | 81 | 1013.0 |
| 20260906152134 | 59 | 130 | 0.0 | 1.7 | 0.00 | 0.00 | 0.00 | 82 | 1013.0 |
| 20260906151633 | 59 | 130 | 0.0 | 0.9 | 0.00 | 0.00 | 0.00 | 82 | 1013.0 |
| 20260906151134 | 59 | 128 | 0.0 | 0.0 | 0.00 | 0.00 | 0.00 | 82 | 1013.0 |
| 20260906150133 | 59 | 128 | 0.0 | 0.0 | 0.00 | 0.00 | 0.00 | 82 | 1013.1 |
| 20260906145633 | 59 | 128 | 0.0 | 1.7 | 0.00 | 0.00 | 0.00 | 82 | 1013.2 |
| 20260906145134 | 59 | 128 | 0.0 | 1.7 | 0.00 | 0.00 | 0.00 | 82 | 1013.2 |
| 20260906144634 | 58 | 138 | 0.9 | 1.7 | 0.00 | 0.00 | 0.00 | 82 | 1013.1 |
| 20260906144133 | 58 | 138 | 0.9 | 1.7 | 0.00 | 0.00 | 0.00 | 83 | 1013.1 |
| 20260906143633 | 57 | 121 | 0.0 | 1.7 | 0.00 | 0.00 | 0.00 | 85 | 1013.1 |
| 20260906143133 | 56 | 143 | 0.0 | 0.9 | 0.00 | 0.00 | 0.00 | 85 | 1012.9 |
| 20260906142633 | 55 | 336 | 0.0 | 0.0 | 0.00 | 0.00 | 0.00 | 86 | 1012.7 |
| 20260906141633 | 54 | 336 | 0.0 | 1.7 | 0.00 | 0.00 | 0.00 | 87 | 1012.7 |
| 20260906141133 | 54 | 333 | 0.0 | 0.0 | 0.00 | 0.00 | 0.00 | 87 | 1012.7 |
| 20260906140633 | 54 | 333 | 0.0 | 0.0 | 0.00 | 0.00 | 0.00 | 86 | 1012.7 |
| 20260906140132 | 54 | 333 | 0.0 | 1.7 | 0.00 | 0.00 | 0.00 | 86 | 1012.5 |
| 20260906135632 | 54 | 333 | 0.0 | 1.7 | 0.00 | 0.00 | 0.00 | 87 | 1012.5 |
| 20260906135133 | 54 | 335 | 0.9 | 1.7 | 0.00 | 0.00 | 0.00 | 87 | 1012.5 |
| 20260906134633 | 54 | 320 | 0.0 | 0.0 | 0.00 | 0.00 | 0.00 | 87 | 1012.5 |
| 20260906133632 | 54 | 320 | 0.0 | 0.9 | 0.00 | 0.00 | 0.00 | 86 | 1012.3 |
| 20260906133132 | 54 | 320 | 0.0 | 1.7 | 0.00 | 0.00 | 0.00 | 86 | 1012.2 |
| 20260906132632 | 55 | 329 | 0.9 | 1.7 | 0.00 | 0.00 | 0.00 | 86 | 1012.2 |
| 20260906132133 | 55 | 285 | 0.0 | 0.0 | 0.00 | 0.00 | 0.00 | 85 | 1012.2 |
| 20260906131633 | 55 | 285 | 0.0 | 0.0 | 0.00 | 0.00 | 0.00 | 86 | 1012.2 |
| 20260906131132 | 55 | 284 | 0.0 | 0.0 | 0.00 | 0.00 | 0.00 | 85 | 1012.2 |
| 20260906130632 | 55 | 285 | 0.0 | 0.0 | 0.00 | 0.00 | 0.00 | 85 | 1012.2 |
| 20260906130132 | 55 | 285 | 0.0 | 0.0 | 0.00 | 0.00 | 0.00 | 85 | 1012.2 |
| 20260906125632 | 55 | 285 | 0.0 | 0.0 | 0.00 | 0.00 | 0.00 | 85 | 1012.3 |
| 20260906125132 | 55 | 285 | 0.0 | 0.0 | 0.00 | 0.00 | 0.00 | 84 | 1012.4 |
| 20260906124632 | 55 | 288 | 0.0 | 0.0 | 0.00 | 0.00 | 0.00 | 84 | 1012.4 |
| 20260906124132 | 55 | 292 | 0.0 | 0.0 | 0.00 | 0.00 | 0.00 | 85 | 1012.3 |
| 20260906123632 | 55 | 292 | 0.0 | 0.0 | 0.00 | 0.00 | 0.00 | 85 | 1012.4 |
| 20260906122632 | 55 | 290 | 0.0 | 0.0 | 0.00 | 0.00 | 0.00 | 84 | 1012.3 |
| 20260906122132 | 56 | 290 | 0.0 | 0.0 | 0.00 | 0.00 | 0.00 | 84 | 1012.4 |
| 20260906121632 | 56 | 290 | 0.0 | 0.0 | 0.00 | 0.00 | 0.00 | 84 | 1012.4 |
| 20260906121132 | 56 | 290 | 0.0 | 0.0 | 0.00 | 0.00 | 0.00 | 84 | 1012.4 |
| 20260906120632 | 56 | 290 | 0.0 | 0.0 | 0.00 | 0.00 | 0.00 | 84 | 1012.4 |
| 20260906120132 | 56 | 290 | 0.0 | 0.0 | 0.00 | 0.00 | 0.00 | 84 | 1012.5 |
| 20260906115631 | 56 | 290 | 0.0 | 0.0 | 0.00 | 0.00 | 0.00 | 84 | 1012.5 |
| 20260906115132 | 56 | 290 | 0.0 | 0.0 | 0.00 | 0.00 | 0.00 | 84 | 1012.5 |
| 20260906114632 | 56 | 290 | 0.0 | 0.0 | 0.00 | 0.00 | 0.00 | 83 | 1012.4 |
| 20260906114131 | 56 | 290 | 0.0 | 0.0 | 0.00 | 0.00 | 0.00 | 83 | 1012.5 |
| 20260906113631 | 56 | 290 | 0.0 | 0.0 | 0.00 | 0.00 | 0.00 | 84 | 1012.5 |
| 20260906113131 | 56 | 290 | 0.0 | 0.0 | 0.00 | 0.00 | 0.00 | 84 | 1012.5 |
| 20260906112632 | 56 | 290 | 0.0 | 0.0 | 0.00 | 0.00 | 0.00 | 84 | 1012.6 |
| 20260906111631 | 56 | 290 | 0.0 | 0.0 | 0.00 | 0.00 | 0.00 | 84 | 1012.6 |
| 20260906111131 | 56 | 290 | 0.0 | 0.0 | 0.00 | 0.00 | 0.00 | 84 | 1012.5 |
| 20260906110131 | 56 | 290 | 0.0 | 0.0 | 0.00 | 0.00 | 0.00 | 84 | 1012.5 |
| 20260906105631 | 56 | 290 | 0.0 | 0.0 | 0.00 | 0.00 | 0.00 | 84 | 1012.6 |
| 20260906104631 | 56 | 290 | 0.0 | 0.0 | 0.00 | 0.00 | 0.00 | 84 | 1012.6 |
| 20260906103131 | 56 | 290 | 0.0 | 0.0 | 0.00 | 0.00 | 0.00 | 84 | 1012.6 |
| 20260906102631 | 56 | 290 | 0.0 | 0.0 | 0.00 | 0.00 | 0.00 | 84 | 1012.6 |
| 20260906102131 | 56 | 290 | 0.0 | 0.0 | 0.00 | 0.00 | 0.00 | 84 | 1012.6 |
| 20260906101631 | 56 | 290 | 0.0 | 0.0 | 0.00 | 0.00 | 0.00 | 84 | 1012.5 |
| 20260906101131 | 56 | 290 | 0.0 | 0.0 | 0.00 | 0.00 | 0.00 | 84 | 1012.5 |
| 20260906100631 | 56 | 290 | 0.0 | 0.0 | 0.00 | 0.00 | 0.00 | 84 | 1012.5 |
| 20260906095631 | 55 | 290 | 0.0 | 0.0 | 0.00 | 0.00 | 0.00 | 85 | 1012.7 |
| 20260906095131 | 55 | 290 | 0.0 | 0.0 | 0.00 | 0.00 | 0.00 | 85 | 1012.6 |
| 20260906094631 | 55 | 290 | 0.0 | 0.0 | 0.00 | 0.00 | 0.00 | 85 | 1012.6 |
| 20260906094130 | 55 | 290 | 0.0 | 0.0 | 0.00 | 0.00 | 0.00 | 85 | 1012.6 |
| 20260906093130 | 55 | 286 | 0.0 | 0.0 | 0.00 | 0.00 | 0.00 | 86 | 1012.7 |
| 20260906092631 | 55 | 286 | 0.0 | 0.0 | 0.00 | 0.00 | 0.00 | 85 | 1012.9 |
| 20260906092130 | 55 | 286 | 0.0 | 0.0 | 0.00 | 0.00 | 0.00 | 86 | 1012.7 |
| 20260906091630 | 55 | 286 | 0.0 | 0.0 | 0.00 | 0.00 | 0.00 | 86 | 1012.9 |
| 20260906090631 | 55 | 286 | 0.0 | 0.0 | 0.00 | 0.00 | 0.00 | 83 | 1012.9 |
| 20260906090131 | 55 | 286 | 0.0 | 0.0 | 0.00 | 0.00 | 0.00 | 83 | 1013.0 |
| 20260906085630 | 55 | 286 | 0.0 | 0.0 | 0.00 | 0.00 | 0.00 | 83 | 1013.0 |
| 20260906085130 | 55 | 286 | 0.0 | 0.0 | 0.00 | 0.00 | 0.00 | 83 | 1013.0 |
| 20260906084631 | 55 | 286 | 0.0 | 0.0 | 0.00 | 0.00 | 0.00 | 85 | 1013.1 |
| 20260906084130 | 55 | 286 | 0.0 | 0.0 | 0.00 | 0.00 | 0.00 | 85 | 1013.2 |
| 20260906083630 | 55 | 286 | 0.0 | 0.0 | 0.00 | 0.00 | 0.00 | 84 | 1013.2 |
| 20260906083130 | 56 | 286 | 0.0 | 0.0 | 0.00 | 0.00 | 0.00 | 85 | 1013.2 |
| 20260906082130 | 56 | 286 | 0.0 | 0.0 | 0.00 | 0.00 | 0.00 | 84 | 1013.3 |
| 20260906081630 | 56 | 286 | 0.0 | 0.0 | 0.00 | 0.00 | 0.00 | 84 | 1013.3 |
| 20260906081130 | 56 | 286 | 0.0 | 0.0 | 0.00 | 0.00 | 0.00 | 84 | 1013.3 |
| 20260906080630 | 56 | 286 | 0.0 | 0.0 | 0.00 | 0.00 | 0.00 | 84 | 1013.3 |
| 20260906080130 | 57 | 286 | 0.0 | 0.0 | 0.00 | 0.00 | 0.00 | 83 | 1013.3 |
| 20260906075630 | 57 | 255 | 0.0 | 0.0 | 0.00 | 0.00 | 0.00 | 83 | 1013.2 |
| 20260906075130 | 57 | 250 | 0.0 | 0.0 | 0.00 | 0.00 | 0.00 | 83 | 1013.2 |
| 20260906074630 | 57 | 250 | 0.0 | 0.0 | 0.00 | 0.00 | 0.00 | 82 | 1013.3 |
| 20260906074129 | 57 | 250 | 0.0 | 0.0 | 0.00 | 0.00 | 0.00 | 83 | 1013.3 |
| 20260906073130 | 58 | 248 | 0.0 | 0.0 | 0.00 | 0.00 | 0.00 | 83 | 1013.3 |
| 20260906072630 | 58 | 248 | 0.0 | 0.0 | 0.00 | 0.00 | 0.00 | 82 | 1013.2 |
| 20260906071630 | 59 | 248 | 0.0 | 0.0 | 0.00 | 0.00 | 0.00 | 83 | 1013.2 |
| 20260906071130 | 59 | 248 | 0.0 | 0.0 | 0.00 | 0.00 | 0.00 | 83 | 1013.2 |
| 20260906070630 | 59 | 228 | 0.0 | 0.0 | 0.00 | 0.00 | 0.00 | 83 | 1013.2 |
| 20260906070130 | 59 | 228 | 0.0 | 0.0 | 0.00 | 0.00 | 0.00 | 84 | 1013.2 |
| 20260906065629 | 60 | 227 | 0.0 | 0.0 | 0.00 | 0.00 | 0.00 | 85 | 1013.2 |
| 20260906065130 | 60 | 227 | 0.0 | 0.0 | 0.00 | 0.00 | 0.00 | 85 | 1013.2 |
| 20260906064630 | 60 | 227 | 0.0 | 0.0 | 0.00 | 0.00 | 0.00 | 84 | 1013.1 |
| 20260906064130 | 60 | 227 | 0.0 | 0.0 | 0.00 | 0.00 | 0.00 | 84 | 1013.1 |
| 20260906063630 | 60 | 227 | 0.0 | 0.0 | 0.00 | 0.00 | 0.00 | 84 | 1013.2 |
| 20260906063129 | 60 | 227 | 0.0 | 0.0 | 0.00 | 0.00 | 0.00 | 84 | 1013.1 |
| 20260906062630 | 61 | 227 | 0.0 | 0.0 | 0.00 | 0.00 | 0.00 | 83 | 1013.2 |
| 20260906062129 | 61 | 227 | 0.0 | 0.0 | 0.00 | 0.00 | 0.00 | 83 | 1013.2 |
| 20260906061629 | 61 | 227 | 0.0 | 1.7 | 0.00 | 0.00 | 0.00 | 83 | 1013.2 |
| 20260906060629 | 61 | 226 | 0.0 | 1.7 | 0.00 | 0.00 | 0.00 | 83 | 1013.2 |
| 20260906060129 | 61 | 227 | 0.0 | 1.7 | 0.00 | 0.00 | 0.00 | 83 | 1013.2 |
| 20260906055129 | 62 | 274 | 0.0 | 0.0 | 0.00 | 0.00 | 0.00 | 83 | 1013.2 |
| 20260906054629 | 62 | 297 | 0.0 | 1.7 | 0.00 | 0.00 | 0.00 | 82 | 1013.2 |
| 20260906054129 | 62 | 297 | 0.0 | 1.7 | 0.00 | 0.00 | 0.00 | 82 | 1013.2 |
| 20260906053629 | 62 | 5 | 0.0 | 1.7 | 0.00 | 0.00 | 0.00 | 82 | 1013.2 |
| 20260906053129 | 62 | 294 | 0.9 | 2.6 | 0.00 | 0.00 | 0.00 | 82 | 1013.2 |
| 20260906052628 | 62 | 341 | 0.9 | 2.6 | 0.00 | 0.00 | 0.00 | 81 | 1013.2 |
| 20260906052128 | 63 | 285 | 0.0 | 1.7 | 0.00 | 0.00 | 0.00 | 81 | 1013.3 |
| 20260906051628 | 63 | 345 | 0.0 | 1.7 | 0.00 | 0.00 | 0.00 | 80 | 1013.3 |
| 20260906051128 | 63 | 309 | 0.0 | 2.6 | 0.00 | 0.00 | 0.00 | 80 | 1013.4 |
| 20260906050628 | 63 | 322 | 0.0 | 2.6 | 0.00 | 0.00 | 0.00 | 80 | 1013.4 |
| 20260906050128 | 63 | 317 | 0.9 | 1.7 | 0.00 | 0.00 | 0.00 | 79 | 1013.4 |
| 20260906045628 | 63 | 344 | 1.7 | 1.7 | 0.00 | 0.00 | 0.00 | 78 | 1013.3 |
| 20260906045128 | 64 | 209 | 0.0 | 0.0 | 0.00 | 0.00 | 0.00 | 77 | 1013.2 |
| 20260906044628 | 64 | 209 | 0.0 | 1.7 | 0.00 | 0.00 | 0.00 | 77 | 1013.1 |
| 20260906044128 | 64 | 209 | 0.0 | 1.7 | 0.00 | 0.00 | 0.00 | 77 | 1013.0 |
| 20260906043628 | 64 | 159 | 0.0 | 1.7 | 0.00 | 0.00 | 0.00 | 76 | 1012.9 |
| 20260906043128 | 64 | 159 | 0.0 | 1.7 | 0.00 | 0.00 | 0.00 | 75 | 1013.0 |
| 20260906042628 | 65 | 223 | 0.0 | 1.7 | 0.00 | 0.00 | 0.00 | 74 | 1013.0 |
| 20260906042128 | 65 | 252 | 0.0 | 1.7 | 0.00 | 0.00 | 0.00 | 74 | 1012.9 |
| 20260906041628 | 65 | 321 | 0.0 | 0.9 | 0.00 | 0.00 | 0.00 | 73 | 1012.9 |
| 20260906041128 | 65 | 326 | 0.0 | 1.7 | 0.00 | 0.00 | 0.00 | 73 | 1012.9 |
| 20260906040628 | 66 | 322 | 0.0 | 1.7 | 0.00 | 0.00 | 0.00 | 72 | 1012.9 |
| 20260906035628 | 66 | 30 | 0.0 | 1.7 | 0.00 | 0.00 | 0.00 | 72 | 1012.6 |
| 20260906035128 | 66 | 79 | 0.0 | 1.7 | 0.00 | 0.00 | 0.00 | 71 | 1012.5 |
| 20260906034628 | 66 | 339 | 0.0 | 1.7 | 0.00 | 0.00 | 0.00 | 71 | 1012.6 |
| 20260906034127 | 67 | 321 | 0.0 | 1.7 | 0.00 | 0.00 | 0.00 | 70 | 1012.5 |
| 20260906033627 | 67 | 298 | 0.0 | 1.7 | 0.00 | 0.00 | 0.00 | 69 | 1012.4 |
| 20260906033128 | 67 | 269 | 0.0 | 1.7 | 0.00 | 0.00 | 0.00 | 69 | 1012.3 |
| 20260906032627 | 67 | 262 | 0.0 | 0.0 | 0.00 | 0.00 | 0.00 | 68 | 1012.2 |
| 20260906032128 | 68 | 262 | 0.0 | 1.7 | 0.00 | 0.00 | 0.00 | 68 | 1012.2 |
| 20260906031627 | 68 | 292 | 0.0 | 2.6 | 0.00 | 0.00 | 0.00 | 67 | 1012.2 |
| 20260906031128 | 68 | 323 | 0.9 | 2.6 | 0.00 | 0.00 | 0.00 | 67 | 1012.1 |
| 20260906030627 | 69 | 233 | 0.0 | 1.7 | 0.00 | 0.00 | 0.00 | 66 | 1012.0 |
| 20260906030128 | 69 | 261 | 0.0 | 1.7 | 0.00 | 0.00 | 0.00 | 65 | 1012.0 |
| 20260906025628 | 69 | 288 | 0.9 | 2.6 | 0.00 | 0.00 | 0.00 | 64 | 1011.8 |
| 20260906025127 | 70 | 248 | 0.9 | 2.6 | 0.00 | 0.00 | 0.00 | 63 | 1011.9 |
| 20260906024628 | 70 | 250 | 0.0 | 2.6 | 0.00 | 0.00 | 0.00 | 63 | 1011.8 |
| 20260906024127 | 71 | 224 | 0.0 | 2.6 | 0.00 | 0.00 | 0.00 | 62 | 1011.8 |
| 20260906023627 | 71 | 21 | 0.0 | 2.6 | 0.00 | 0.00 | 0.00 | 61 | 1011.8 |
| 20260906023128 | 72 | 177 | 0.0 | 2.6 | 0.00 | 0.00 | 0.00 | 59 | 1011.8 |
| 20260906022627 | 72 | 102 | 1.7 | 2.6 | 0.00 | 0.00 | 0.00 | 58 | 1011.7 |
| 20260906021627 | 74 | 284 | 0.0 | 3.5 | 0.00 | 0.00 | 0.00 | 56 | 1011.7 |
| 20260906021127 | 74 | 92 | 1.7 | 4.3 | 0.00 | 0.00 | 0.00 | 55 | 1011.5 |
| 20260906020627 | 75 | 205 | 0.0 | 5.2 | 0.00 | 0.00 | 0.00 | 53 | 1011.5 |
| 20260906020127 | 76 | 265 | 0.9 | 5.2 | 0.00 | 0.00 | 0.00 | 53 | 1011.4 |
| 20260906015127 | 77 | 343 | 0.9 | 4.3 | 0.00 | 0.00 | 0.00 | 50 | 1011.5 |
| 20260906014626 | 78 | 15 | 0.0 | 4.3 | 0.00 | 0.00 | 0.00 | 49 | 1011.4 |
| 20260906014127 | 78 | 161 | 0.0 | 3.5 | 0.00 | 0.00 | 0.00 | 48 | 1011.4 |
| 20260906013627 | 79 | 273 | 0.0 | 3.5 | 0.00 | 0.00 | 0.00 | 47 | 1011.5 |
| 20260906012627 | 80 | 248 | 0.0 | 1.7 | 0.00 | 0.00 | 0.00 | 45 | 1011.5 |
| 20260906012156 | 81 | 246 | 0.0 | 2.6 | 0.00 | 0.00 | 0.00 | 44 | 1011.6 |
| 20260906011626 | 81 | 343 | 0.9 | 2.6 | 0.00 | 0.00 | 0.00 | 43 | 1011.5 |
| 20260906011126 | 82 | 329 | 0.9 | 3.5 | 0.00 | 0.00 | 0.00 | 42 | 1011.6 |
| 20260906010126 | 84 | 267 | 0.9 | 2.6 | 0.00 | 0.00 | 0.00 | 41 | 1011.6 |
| 20260906005626 | 84 | 226 | 1.7 | 4.3 | 0.00 | 0.00 | 0.00 | 40 | 1011.6 |
| 20260906005126 | 85 | 48 | 0.9 | 4.3 | 0.00 | 0.00 | 0.00 | 39 | 1011.6 |
| 20260906004626 | 85 | 172 | 0.0 | 4.3 | 0.00 | 0.00 | 0.00 | 40 | 1011.6 |
| 20260906004126 | 85 | 257 | 0.0 | 4.3 | 0.00 | 0.00 | 0.00 | 38 | 1011.5 |
| 20260906003627 | 85 | 309 | 1.7 | 5.2 | 0.00 | 0.00 | 0.00 | 38 | 1011.5 |
| 20260906002626 | 86 | 195 | 0.0 | 2.6 | 0.00 | 0.00 | 0.00 | 36 | 1011.5 |
| 20260906002125 | 86 | 211 | 0.0 | 5.2 | 0.00 | 0.00 | 0.00 | 36 | 1011.4 |
| 20260906001626 | 86 | 350 | 0.0 | 5.2 | 0.00 | 0.00 | 0.00 | 35 | 1011.4 |
| 20260906001125 | 86 | 14 | 0.0 | 3.5 | 0.00 | 0.00 | 0.00 | 35 | 1011.4 |
| 20260906000125 | 86 | 309 | 0.0 | 5.2 | 0.00 | 0.00 | 0.00 | 35 | 1011.4 |
| 20260905235656 | 86 | 165 | 0.9 | 5.2 | 0.00 | 0.00 | 0.00 | 35 | 1011.3 |
| 20260905235125 | 87 | 341 | 2.6 | 5.2 | 0.00 | 0.00 | 0.00 | 35 | 1011.4 |
| 20260905234626 | 87 | 302 | 0.9 | 7.8 | 0.00 | 0.00 | 0.00 | 34 | 1011.4 |
| 20260905234155 | 88 | 277 | 0.0 | 7.8 | 0.00 | 0.00 | 0.00 | 34 | 1011.4 |
| 20260905233625 | 89 | 345 | 0.9 | 2.6 | 0.00 | 0.00 | 0.00 | 33 | 1011.3 |
| 20260905232626 | 89 | 171 | 1.7 | 3.5 | 0.00 | 0.00 | 0.00 | 32 | 1011.4 |
| 20260905232126 | 89 | 323 | 0.0 | 3.5 | 0.00 | 0.00 | 0.00 | 33 | 1011.4 |
| 20260905231625 | 89 | 259 | 0.9 | 5.2 | 0.00 | 0.00 | 0.00 | 32 | 1011.4 |
| 20260905231125 | 89 | 260 | 0.9 | 5.2 | 0.00 | 0.00 | 0.00 | 33 | 1011.4 |
| 20260905230126 | 89 | 209 | 3.5 | 4.3 | 0.00 | 0.00 | 0.00 | 32 | 1011.5 |
| 20260905225626 | 89 | 256 | 0.9 | 4.3 | 0.00 | 0.00 | 0.00 | 31 | 1011.5 |
| 20260905225125 | 89 | 169 | 1.7 | 4.3 | 0.00 | 0.00 | 0.00 | 32 | 1011.6 |
| 20260905224655 | 89 | 190 | 0.9 | 4.3 | 0.00 | 0.00 | 0.00 | 33 | 1011.7 |
| 20260905224125 | 90 | 230 | 3.5 | 3.5 | 0.00 | 0.00 | 0.00 | 32 | 1011.7 |
| 20260905223625 | 91 | 226 | 0.9 | 4.3 | 0.00 | 0.00 | 0.00 | 32 | 1011.8 |
| 20260905223125 | 91 | 273 | 1.7 | 4.3 | 0.00 | 0.00 | 0.00 | 31 | 1011.7 |
| 20260905222625 | 91 | 167 | 0.9 | 2.6 | 0.00 | 0.00 | 0.00 | 31 | 1011.7 |
| 20260905222126 | 91 | 180 | 0.9 | 2.6 | 0.00 | 0.00 | 0.00 | 31 | 1011.6 |
| 20260905221625 | 91 | 246 | 0.0 | 2.6 | 0.00 | 0.00 | 0.00 | 31 | 1011.5 |
| 20260905220656 | 91 | 158 | 0.0 | 3.5 | 0.00 | 0.00 | 0.00 | 31 | 1011.4 |
| 20260905215626 | 90 | 207 | 0.9 | 2.6 | 0.00 | 0.00 | 0.00 | 30 | 1011.6 |
| 20260905215126 | 89 | 211 | 0.9 | 5.2 | 0.00 | 0.00 | 0.00 | 31 | 1011.7 |
| 20260905214626 | 89 | 217 | 0.9 | 6.1 | 0.00 | 0.00 | 0.00 | 30 | 1011.7 |
| 20260905214125 | 88 | 191 | 1.7 | 7.8 | 0.00 | 0.00 | 0.00 | 31 | 1011.7 |
| 20260905213625 | 88 | 192 | 0.9 | 7.8 | 0.00 | 0.00 | 0.00 | 29 | 1011.8 |
| 20260905213125 | 90 | 149 | 4.3 | 7.8 | 0.00 | 0.00 | 0.00 | 28 | 1011.8 |
| 20260905212625 | 90 | 225 | 0.9 | 5.2 | 0.00 | 0.00 | 0.00 | 29 | 1011.8 |
| 20260905212126 | 89 | 163 | 0.9 | 5.2 | 0.00 | 0.00 | 0.00 | 29 | 1011.9 |
| 20260905211625 | 89 | 284 | 0.0 | 5.2 | 0.00 | 0.00 | 0.00 | 30 | 1011.9 |
| 20260905211125 | 89 | 286 | 1.7 | 4.3 | 0.00 | 0.00 | 0.00 | 29 | 1011.9 |
| 20260905210625 | 90 | 147 | 0.9 | 5.2 | 0.00 | 0.00 | 0.00 | 31 | 1012.0 |
| 20260905210155 | 89 | 147 | 1.7 | 5.2 | 0.00 | 0.00 | 0.00 | 30 | 1011.9 |